User: anonymous   Login
Location: Unspecified
(0.0000°N, 0.0000°E)
Time: 17:59:44
(UTC+00:00)
Language:

PROBA 2 - Orbit

View from above orbital plane
View from above orbital plane
View from above satellite
View from above satellite

Ground track
Ground track

The orbit data is extracted from the following two-line orbital elements,

1 36037U 09059B   15241.61450235  .00000061  00000-0  25784-4 0  9998
2 36037 098.2737 073.7011 0012834 195.3442 164.7366 14.52870297308641
Epoch (UTC): 29 August 2015 14:44:53
Eccentricity: 0.0012834
inclination: 98.2737°
perigee height: 707 km
apogee height: 725 km
right ascension of ascending node: 73.7011°
argument of perigee: 195.3442°
revolutions per day: 14.52870297
mean anomaly at epoch: 164.7366°
orbit number at epoch: 30864

The dashed part of the orbit path shows where the satellite is in the earth's shadow,  

DLR